CAPE
0 0 0 0 0 0 0 0 0 0 0 0 0 0 0 0 0 0 0 0 0 0 0 1 0 0 0 0 0 0 0 0
0 0 0 0 0 2 2 0 2 0 0 0 0 0 0 1 7 0 4 0 0 0 0 0 0 0 0 0 0 0 0 0
2 1 0 3 0 0 0 6 1 1 7 17 7 6 12 17 14 25 21 0 0 0 0 0 5 0 0 0 0 0 0 0
4 21 23 10 6 0 0 2 23 29 32 31 27 19 19 14 8 6 4 0 0 0 0 0 0 0 0 0 0 0 0 0
15 16 6 4 2 0 5 9 2 0 0 0 0 0 0 0 0 0 0 0 0 0 0 0 0 0 0 0 0 0 0 0
6 6 5 4 0 0 0 0 0 0 0 0 0 0 0 0 0 0 0 0 0 0 0 0 0 0 0 0 0 0 0 0
1 2 0 0 0 0 0 0 0 0 0 0 0 0 0 0 0 0 0 0 0 0 0 0 0 0 0 0 0 0 0 0
0 0 0 0 0 0 0 0 0 0 0 0 0 0 0 0 0 0 0 0 0 0 0 0 0 0 0 0 0 0 0 0
0 0 0 0 0 0 0 0 0 0 0 0 0 0 0 0 0 0 0 0 0 0 0 0 0 0 0 0 0 0 0 0
0 0 0 0 0 0 0 0 0 0 0 0 0 0 0 0 0 0 0 0 0 0 0 0 0 0 0 0 0 0 0 0
0 0 0 0 0 0 0 0 0 0 0 0 0 0 0 0 0 0 0 0 0 0 0 0 0 0 0 0 0 0 1 0
0 0 0 0 0 0 0 0 0 0 0 0 0 0 0 0 0 0 0 0 0 1 0 0 0 0 0 0 0 0 1 0
0 0 0 0 0 0 0 0 0 0 0 0 0 0 0 0 0 0 1 4 2 1 2 6 2 0 0 0 0 0 0 0
0 0 0 0 0 0 0 0 0 0 0 0 0 0 0 0 2 5 1 0 1 2 1 0 1 1 0 0 0 0 0 3
0 0 0 0 0 0 0 0 0 0 0 0 0 0 1 1 2 1 2 2 0 0 0 2 0 0 1 0 0 0 0 0
0 0 0 0 0 0 0 0 0 0 0 0 0 1 0 1 1 0 2 0 1 0 0 0 0 0 0 0 0 0 0 0
0 0 0 0 0 0 0 0 0 0 0 1 0 2 0 2 0 0 0 0 0 1 1 1 0 0 0 1 0 0 0 0
0 0 0 0 0 0 0 0 0 0 0 2 0 0 2 2 1 0 0 0 1 0 0 0 0 0 1 1 0 0 0 0
0 0 0 0 0 0 0 0 1 1 1 2 1 1 3 2 0 0 0 0 1 1 0 0 0 0 1 0 0 0 0 0
CIN
0 0 0 0 0 0 0 0 0 0 0 0 0 0 0 0 0 0 -11 0 0 0 0 -46 0 0 0 0 0 0 0 0
0 0 0 0 0 -23 -28 0 -27 -25 0 0 0 0 0 -46 -42 -46 -69 0 0 0 0 0 0 0 0 0 0 0 0 0
-13 -28 0 -21 0 -5 0 -26 -8 -20 -35 -32 -39 -39 -34 -33 -38 -35 -49 -10 0 0 0 0 -22 0 0 0 0 0 0 0
-13 -28 -39 -42 -33 -4 0 -13 -24 -34 -37 -49 -53 -59 -57 -52 -48 -60 -31 0 0 0 0 0 0 0 0 0 0 0 0 0
-14 -18 -24 -34 -31 0 -58 -61 -11 -11 0 0 0 0 0 0 0 0 0 0 0 0 0 0 0 0 0 0 0 0 0 0
-9 -11 -16 -28 0 0 0 0 0 0 0 0 0 0 0 0 0 0 0 0 0 0 0 0 0 0 0 0 0 0 0 0
-3 -10 0 0 0 0 0 0 0 0 0 0 0 0 0 0 0 0 0 0 0 0 0 0 0 0 0 0 0 0 0 0
0 0 0 0 0 0 0 0 0 0 0 0 0 0 0 0 0 0 0 0 0 0 0 0 0 0 0 0 0 0 0 0
0 0 0 0 0 0 0 0 0 0 0 0 0 0 0 0 0 0 0 0 0 0 0 0 0 0 0 0 0 0 0 0
0 0 0 0 0 0 0 0 0 0 0 0 0 0 0 0 0 0 0 0 0 0 0 0 0 0 0 0 0 0 0 0
0 0 0 0 0 0 0 0 0 0 0 0 0 0 0 0 0 0 0 0 0 0 0 0 0 0 0 0 0 0 0 0
0 0 0 0 0 0 0 0 0 0 0 0 0 0 0 0 0 0 -4 -17 -11 -16 0 0 0 0 0 0 0 0 -1 0
0 0 0 0 0 0 0 0 0 0 0 0 0 0 0 0 0 -21 -14 -6 -2 0 -3 -4 -1 0 0 0 0 -1 -1 0
0 0 0 0 0 0 0 0 0 0 0 0 0 0 0 0 0 -1 -1 0 -1 -9 -1 0 0 0 -3 0 0 -1 0 -2
0 0 0 0 0 0 0 0 0 0 0 0 0 0 0 0 0 -1 -1 -6 0 0 0 0 0 0 0 0 0 0 -1 0
0 0 0 0 0 0 0 0 0 0 0 0 0 0 0 0 -5 0 0 0 0 0 0 0 0 -6 -1 -1 0 0 0 0
0 0 0 0 0 0 0 0 0 0 0 0 0 0 0 -5 0 0 0 0 0 0 0 0 0 0 0 0 0 0 0 0
0 0 0 0 0 0 0 0 0 0 0 0 -1 -7 -5 -4 0 0 0 0 0 0 0 0 0 -3 0 0 0 0 -1 0
0 0 0 0 0 0 0 0 0 0 0 0 -1 -5 -1 -3 -1 0 0 0 0 -1 0 0 -1 0 0 0 0 0 0 0
Wind_Speed
22 21 19 18 15 12 11 13 16 18 18 19 20 22 22 21 25 28 28 26 24 25 26 24 21 19 21 21 24 25 25 22
21 17 21 18 16 20 18 19 21 23 23 25 25 24 25 25 26 25 25 26 28 22 27 24 22 24 24 22 23 24 25 23
17 16 17 15 14 12 18 24 24 26 26 23 22 23 23 23 23 25 26 27 27 28 29 32 28 27 27 24 24 25 25 21
20 18 13 11 13 14 16 21 22 23 23 23 25 27 28 28 28 29 30 28 28 28 28 28 29 27 24 24 24 25 27 25
18 16 16 14 15 18 17 18 20 22 25 27 29 29 30 28 29 30 31 32 33 33 32 32 32 31 29 27 25 25 24 29
19 20 18 19 19 20 20 22 23 25 28 29 30 30 31 32 32 33 33 34 34 34 33 33 33 34 32 32 31 27 26 29
24 22 22 22 23 23 22 24 26 28 27 27 28 28 29 30 31 31 31 30 29 29 29 28 27 27 28 32 34 34 32 29
24 26 26 24 24 24 25 27 27 27 29 31 32 33 34 35 36 33 32 32 30 28 27 29 30 30 30 29 31 34 37 36
17 20 22 24 25 29 29 30 29 31 33 33 31 32 34 35 35 34 33 34 33 32 33 32 32 32 32 33 36 34 35 38
18 22 25 27 29 29 30 30 30 30 31 32 32 33 36 37 35 31 31 31 31 30 31 32 32 32 32 32 34 37 37 36
21 24 28 28 29 29 30 28 28 30 31 32 32 35 32 33 31 30 30 29 29 29 29 29 28 28 28 27 28 32 36 36
22 27 28 28 29 31 30 31 31 34 32 31 33 32 31 28 30 30 30 30 30 30 29 30 30 29 29 28 28 28 32 33
26 28 30 32 33 31 32 32 32 33 31 31 30 30 29 30 33 33 31 31 30 29 29 28 28 26 26 25 25 26 28 30
28 29 32 35 32 31 31 30 32 33 30 30 30 31 30 31 31 32 31 32 32 29 29 28 30 28 25 22 22 26 25 25
25 33 36 34 33 33 31 31 33 31 30 31 31 28 28 28 27 27 24 26 31 31 31 30 30 26 24 22 20 22 22 23
26 36 35 34 35 34 31 33 33 30 30 32 29 27 27 27 28 26 26 26 21 28 30 29 28 26 22 23 17 17 20 22
20 33 33 35 36 35 33 35 33 30 31 32 30 26 26 27 26 26 26 26 26 21 26 26 24 24 20 17 17 17 19 23
23 31 33 35 35 33 35 35 31 30 31 32 30 28 27 28 28 26 25 25 25 25 22 25 21 18 13 12 14 16 19 22
25 28 32 35 33 32 35 33 31 31 31 32 29 29 27 28 27 28 27 25 23 25 24 24 17 13 7 7 10 14 17 21
Wind_Direction
20 13 24 19 3 358 10 354 343 338 333 328 323 318 315 313 311 307 308 305 303 301 298 298 297 299 302 305 307 310 310 309
15 16 357 356 8 327 341 344 338 332 329 322 318 313 313 310 310 311 311 310 309 307 308 306 298 294 294 295 300 303 307 308
19 9 0 355 352 347 333 328 324 324 323 325 323 321 317 313 310 308 307 307 304 304 303 300 295 291 289 289 292 297 300 302
11 10 26 18 1 352 343 339 333 332 331 328 324 320 318 314 311 310 307 306 305 304 303 299 298 294 285 283 285 289 291 293
16 15 11 7 360 352 348 348 345 340 335 330 326 321 317 315 313 311 308 306 303 301 299 297 296 293 287 283 282 282 283 283
5 0 5 3 4 359 353 346 342 340 335 331 327 321 318 315 313 310 307 306 304 302 300 297 294 291 287 284 280 274 273 277
1 6 3 359 357 354 354 348 343 339 338 335 329 325 322 319 316 313 310 309 309 308 305 302 300 298 294 286 281 276 271 270
7 360 357 360 359 358 353 348 346 344 341 337 333 330 327 324 321 320 316 312 310 305 302 299 296 292 290 289 286 280 273 267
28 20 14 7 2 356 354 352 349 346 342 340 339 335 331 327 324 319 315 311 308 306 302 299 295 291 287 283 278 279 277 268
29 19 11 7 2 360 356 354 352 350 347 344 340 336 332 329 327 325 320 316 311 308 304 300 297 292 288 284 279 274 270 271
25 19 10 8 5 3 0 360 357 356 352 349 345 340 339 337 336 333 329 323 318 313 308 305 301 297 293 290 284 278 268 259
25 15 12 11 7 5 4 2 2 360 357 354 350 349 347 347 341 335 330 325 320 314 310 305 300 295 290 286 283 279 271 256
22 18 12 9 8 8 7 8 8 4 0 1 0 358 356 349 342 337 334 327 324 319 314 307 301 295 290 283 280 278 272 257
21 18 13 10 12 11 12 14 10 6 11 9 6 2 1 357 352 346 339 332 325 320 315 309 301 294 286 279 277 270 268 255
25 16 11 14 15 14 16 15 12 14 14 13 10 13 12 9 7 3 4 354 333 323 315 306 296 295 286 276 269 266 261 252
26 15 16 18 17 17 20 17 16 19 19 16 19 19 18 17 14 14 12 10 12 340 318 307 296 290 286 271 261 260 254 246
28 23 22 21 18 20 22 19 22 25 23 21 22 24 25 23 23 22 21 22 23 31 354 318 305 291 281 267 252 249 244 238
33 29 26 23 21 27 24 23 29 29 27 26 26 27 26 26 30 31 31 32 33 34 41 348 322 308 279 259 242 241 236 231
38 34 31 27 32 33 28 31 35 33 32 31 31 30 32 30 33 33 36 40 44 42 48 41 335 322 298 249 239 234 230 226